Oklahoma City, OK

6:37 PM CST on February 25, 2017 (GMT -0600)
Will Rogers World

Weather History for KOKC - November, 2012

Change the Weather History Date:

Saturday, November 17, 2012

  Actual Average Record
Temperature  
Mean Temperature 48 °F 50 °F  
Max Temperature 62 °F 61 °F 80 °F (1896)
Min Temperature 33 °F 39 °F 9 °F (1894)
Degree Days  
Heating Degree Days 17 15  
Month to date heating degree days 185 200  
Since 1 July heating degree days 382 364  
Cooling Degree Days 0 0  
Month to date cooling degree days 13 7  
Year to date cooling degree days 2505 2099  
Moisture  
Dew Point 30 °F    
Average Humidity 55    
Maximum Humidity 82    
Minimum Humidity 27    
Precipitation  
Precipitation 0.00 in 0.06 in 1.70 in (1984)
Month to date precipitation 0.81 1.25  
Year to date precipitation 28.80 33.91  
Snow  
Snow 0.00 in 0.00 in 4.00 in (1980)
Month to date snowfall 0.0 0.1  
Since 1 July snowfall 0.0 0.1  
Snow Depth -    
Sea Level Pressure  
Sea Level Pressure 30.31 in    
Wind  
Wind Speed 10 mph (SSE)    
Max Wind Speed 20 mph    
Max Gust Speed 25 mph    
Visibility 10 miles    
Events      
T = Trace of Precipitation, MM = Missing Value Source: NWS Daily Summary

Daily Weather History Graph

Daily Weather History Graph

Search for Another Location

Airport or City:

Trip Planner

Search our weather history database for the weather conditions in past years. The results will help you decide how hot, cold, wet, or windy it might be!

Date:

Astronomy

Nov. 17, 2012 Rise Set
Actual Time 7:08 AM CST 5:22 PM CST
Civil Twilight 6:40 AM CST 5:49 PM CST
Nautical Twilight 6:10 AM CST 6:20 PM CST
Astronomical Twilight 5:39 AM CST 6:50 PM CST
Moon 10:53 AM CST (11/17) 9:33 PM CST (11/17)
Length of Visible Light 11h 08m
Length of Day
10h 14m
Waxing Crescent, 20% of the Moon is Illuminated
Nov 17
Waxing Crescent
Nov 20
First Quarter
Nov 28
Full
Dec 6
Last Quarter
Dec 13
New

Hourly Weather History & Observations

Time (CST) Temp. Windchill Dew Point Humidity Pressure Visibility Wind Dir Wind Speed Gust Speed Precip Events Conditions
12:52 AM 41.0 °F - 30.0 °F 65% 30.34 in 10.0 mi Calm Calm - N/A   Clear
1:52 AM 41.0 °F 39.0 °F 30.0 °F 65% 30.34 in 10.0 mi SSE 3.5 mph - N/A   Clear
2:52 AM 39.0 °F 34.8 °F 30.0 °F 70% 30.33 in 10.0 mi SE 5.8 mph - N/A   Partly Cloudy
3:52 AM 39.9 °F 35.8 °F 30.0 °F 68% 30.33 in 10.0 mi SE 5.8 mph - N/A   Partly Cloudy
4:52 AM 37.0 °F 33.3 °F 30.0 °F 76% 30.33 in 10.0 mi SE 4.6 mph - N/A   Partly Cloudy
5:52 AM 36.0 °F 30.3 °F 28.9 °F 76% 30.34 in 10.0 mi South 6.9 mph - N/A   Partly Cloudy
6:52 AM 34.0 °F 27.2 °F 28.9 °F 82% 30.37 in 10.0 mi South 8.1 mph - N/A   Partly Cloudy
7:52 AM 36.0 °F 31.1 °F 30.0 °F 79% 30.38 in 10.0 mi South 5.8 mph - N/A   Partly Cloudy
8:52 AM 44.1 °F 39.0 °F 35.1 °F 71% 30.38 in 10.0 mi South 9.2 mph - N/A   Partly Cloudy
9:52 AM 51.1 °F - 33.1 °F 50% 30.38 in 10.0 mi South 13.8 mph - N/A   Partly Cloudy
10:52 AM 55.9 °F - 28.9 °F 36% 30.38 in 10.0 mi South 17.3 mph - N/A   Partly Cloudy
11:52 AM 57.9 °F - 30.0 °F 35% 30.35 in 10.0 mi South 13.8 mph 21.9 mph N/A   Partly Cloudy
12:52 PM 60.1 °F - 30.0 °F 32% 30.32 in 10.0 mi South 13.8 mph - N/A   Partly Cloudy
1:52 PM 61.0 °F - 28.9 °F 30% 30.28 in 10.0 mi South 16.1 mph - N/A   Partly Cloudy
2:52 PM 62.1 °F - 28.0 °F 28% 30.27 in 10.0 mi South 15.0 mph 20.7 mph N/A   Partly Cloudy
3:52 PM 61.0 °F - 28.0 °F 29% 30.26 in 10.0 mi SSE 15.0 mph - N/A   Scattered Clouds
4:52 PM 55.9 °F - 28.9 °F 36% 30.27 in 10.0 mi SSE 11.5 mph - N/A   Mostly Cloudy
5:52 PM 50.0 °F - 30.9 °F 48% 30.26 in 10.0 mi SE 9.2 mph - N/A   Mostly Cloudy
6:52 PM 50.0 °F - 30.9 °F 48% 30.27 in 10.0 mi SSE 9.2 mph - N/A   Mostly Cloudy
7:52 PM 48.9 °F - 30.0 °F 48% 30.26 in 10.0 mi SSE 8.1 mph - N/A   Mostly Cloudy
8:52 PM 48.0 °F - 30.0 °F 50% 30.26 in 10.0 mi SSE 9.2 mph - N/A   Mostly Cloudy
9:52 PM 46.0 °F 41.4 °F 30.0 °F 54% 30.26 in 10.0 mi SSE 9.2 mph - N/A   Scattered Clouds
10:52 PM 45.0 °F 40.6 °F 30.0 °F 56% 30.26 in 10.0 mi SSE 8.1 mph - N/A   Mostly Cloudy
11:52 PM 45.0 °F 40.1 °F 30.0 °F 56% 30.25 in 10.0 mi SSE 9.2 mph - N/A   Mostly Cloudy